Weather History for KHHF - October, 2012

Change the Weather History Date:

Wednesday, October 31, 2012

  Actual Average (KPPA) Record (KPPA)
Temperature  
Mean Temperature 58 °F -  
Max Temperature 82 °F 62 °F 87 °F (1968)
Min Temperature 35 °F 38 °F 12 °F (1993)
Degree Days  
Heating Degree Days 6    
Growing Degree Days 8 (Base 50)    
Moisture  
Dew Point 33 °F    
Average Humidity 47    
Maximum Humidity 87    
Minimum Humidity 15    
Precipitation  
Precipitation 0.00 in - - ()
Sea Level Pressure  
Sea Level Pressure 30.04 in    
Wind  
Wind Speed 2 mph (WSW)    
Max Wind Speed 9 mph    
Max Gust Speed -    
Visibility 10 miles    
Events      
Averages and records for this station are not official NWS values.
T = Trace of Precipitation, MM = Missing Value Source: NWS Daily Summary

Daily Weather History Graph

Daily Weather History Graph

Search for Another Location

Airport or City:

Trip Planner

Search our weather history database for the weather conditions in past years. The results will help you decide how hot, cold, wet, or windy it might be!

Date:

Astronomy

Oct. 31, 2012 Rise Set
Actual Time 8:03 AM CDT 6:46 PM CDT
Civil Twilight 7:37 AM CDT 7:12 PM CDT
Nautical Twilight 7:06 AM CDT 7:43 PM CDT
Astronomical Twilight 6:36 AM CDT 8:12 PM CDT
Moon 8:02 PM CDT (10/31) 9:42 AM CDT (10/31)
Length of Visible Light 11h 35m
Length of Day
10h 42m
Full, 97% of the Moon is Illuminated
Oct 31
Full
Nov 6
Last Quarter
Nov 13
New
Nov 20
First Quarter
Nov 28
Full

Hourly Weather History & Observations

Time (CDT) Temp. Windchill Dew Point Humidity Pressure Visibility Wind Dir Wind Speed Gust Speed Precip Events Conditions
12:15 AM 46.4 °F - 32.0 °F 57% 30.03 in 10.0 mi Calm Calm - N/A   Clear
12:35 AM 50.0 °F - 33.8 °F 54% 30.03 in 10.0 mi Calm Calm - N/A   Clear
12:55 AM 50.0 °F - 32.0 °F 50% 30.03 in 10.0 mi WSW 3.5 mph - N/A   Clear
1:15 AM 46.4 °F 44.3 °F 32.0 °F 57% 30.04 in 10.0 mi SW 4.6 mph - N/A   Clear
1:35 AM 44.6 °F 42.2 °F 32.0 °F 61% 30.05 in 10.0 mi WSW 4.6 mph - N/A   Clear
1:55 AM 46.4 °F 43.5 °F 33.8 °F 62% 30.05 in 10.0 mi SW 5.8 mph - N/A   Clear
2:15 AM 44.6 °F 43.1 °F 33.8 °F 66% 30.05 in 10.0 mi SSW 3.5 mph - N/A   Clear
2:35 AM 46.4 °F - 33.8 °F 62% 30.05 in 10.0 mi Calm Calm - N/A   Clear
2:55 AM 44.6 °F - 33.8 °F 66% 30.05 in 10.0 mi Calm Calm - N/A   Clear
3:15 AM 41.0 °F 39.0 °F 32.0 °F 70% 30.05 in 10.0 mi SSW 3.5 mph - N/A   Clear
3:35 AM 42.8 °F - 33.8 °F 70% 30.05 in 10.0 mi Calm Calm - N/A   Clear
3:55 AM 42.8 °F - 33.8 °F 70% 30.05 in 10.0 mi Calm Calm - N/A   Clear
4:35 AM 41.0 °F - 32.0 °F 70% 30.05 in 10.0 mi Calm Calm - N/A   Clear
4:55 AM 37.4 °F - 32.0 °F 81% 30.06 in 10.0 mi Calm Calm - N/A   Clear
5:15 AM 37.4 °F - 32.0 °F 81% 30.06 in 10.0 mi Calm Calm - N/A   Clear
5:35 AM 35.6 °F 31.7 °F 32.0 °F 87% 30.06 in 10.0 mi SW 4.6 mph - N/A   Clear
5:55 AM 37.4 °F 33.8 °F 32.0 °F 81% 30.06 in 10.0 mi WSW 4.6 mph - N/A   Clear
6:15 AM 39.2 °F - 32.0 °F 75% 30.07 in 10.0 mi Calm Calm - N/A   Clear
6:35 AM 39.2 °F 37.0 °F 32.0 °F 75% 30.08 in 10.0 mi NE 3.5 mph - N/A   Clear
6:55 AM 41.0 °F - 33.8 °F 76% 30.08 in 10.0 mi Calm Calm - N/A   Clear
7:15 AM 37.4 °F - 32.0 °F 81% 30.07 in 10.0 mi Calm Calm - N/A   Clear
7:35 AM 35.6 °F - 32.0 °F 87% 30.08 in 10.0 mi Calm Calm - N/A   Clear
7:55 AM 35.6 °F - 32.0 °F 87% 30.08 in 10.0 mi Calm Calm - N/A   Clear
8:15 AM 37.4 °F - 32.0 °F 81% 30.09 in 10.0 mi Calm Calm - N/A   Clear
8:35 AM 37.4 °F 34.9 °F 32.0 °F 81% 30.09 in 10.0 mi SW 3.5 mph - N/A   Clear
8:55 AM 41.0 °F - 32.0 °F 70% 30.10 in 7.0 mi Calm Calm - N/A   Clear
9:15 AM 42.8 °F - 33.8 °F 70% 30.10 in 10.0 mi Calm Calm - N/A   Clear
9:35 AM 44.6 °F - 33.8 °F 66% 30.11 in 10.0 mi Calm Calm - N/A   Clear
9:55 AM 50.0 °F - 35.6 °F 58% 30.10 in 10.0 mi Calm Calm - N/A   Clear
10:15 AM 51.8 °F - 35.6 °F 54% 30.11 in 10.0 mi Calm Calm - N/A   Clear
10:35 AM 53.6 °F - 35.6 °F 51% 30.11 in 10.0 mi Calm Calm - N/A   Clear
10:55 AM 57.2 °F - 37.4 °F 48% 30.11 in 10.0 mi Calm Calm - N/A   Clear
11:15 AM 59.0 °F - 37.4 °F 45% 30.11 in 10.0 mi Calm Calm - N/A   Clear
11:35 AM 62.6 °F - 37.4 °F 39% 30.10 in 10.0 mi Calm Calm - N/A   Clear
11:55 AM 64.4 °F - 35.6 °F 34% 30.10 in 10.0 mi Calm Calm - N/A   Clear
12:15 PM 68.0 °F - 35.6 °F 30% 30.09 in 10.0 mi Calm Calm - N/A   Clear
12:35 PM 69.8 °F - 35.6 °F 28% 30.09 in 10.0 mi Calm Calm - N/A   Clear
12:55 PM 73.4 °F - 35.6 °F 25% 30.07 in 10.0 mi West 5.8 mph - N/A   Clear
1:15 PM 75.2 °F - 35.6 °F 24% 30.06 in 10.0 mi Calm Calm - N/A   Clear
1:35 PM 77.0 °F - 33.8 °F 21% 30.05 in 10.0 mi West 5.8 mph - N/A   Clear
1:55 PM 78.8 °F - 33.8 °F 20% 30.04 in 10.0 mi SW 4.6 mph - N/A   Clear
2:15 PM 78.8 °F - 33.8 °F 20% 30.03 in 10.0 mi Calm Calm - N/A   Clear
2:35 PM 80.6 °F - 32.0 °F 17% 30.02 in 10.0 mi SW 4.6 mph - N/A   Clear
2:55 PM 80.6 °F - 33.8 °F 18% 30.01 in 10.0 mi SE 3.5 mph - N/A   Clear
3:15 PM 82.4 °F - 32.0 °F 16% 30.00 in 10.0 mi WNW 5.8 mph - N/A   Clear
3:35 PM 82.4 °F - 32.0 °F 16% 29.99 in 10.0 mi NNE 5.8 mph - N/A   Clear
3:55 PM 82.4 °F - 32.0 °F 16% 29.99 in 10.0 mi WNW 3.5 mph - N/A   Clear
4:15 PM 82.4 °F - 32.0 °F 16% 29.99 in 10.0 mi North 9.2 mph - N/A   Clear
4:35 PM 82.4 °F - 30.2 °F 15% 29.99 in 10.0 mi WNW 9.2 mph - N/A   Clear
4:55 PM 82.4 °F - 30.2 °F 15% 29.98 in 10.0 mi West 4.6 mph - N/A   Clear
5:15 PM 82.4 °F - 30.2 °F 15% 29.98 in 10.0 mi West 3.5 mph - N/A   Clear
5:35 PM 80.6 °F - 32.0 °F 17% 29.98 in 10.0 mi Calm Calm - N/A   Clear
5:55 PM 80.6 °F - 30.2 °F 16% 29.98 in 10.0 mi West 8.1 mph - N/A   Clear
6:15 PM 78.8 °F - 30.2 °F 17% 29.98 in 10.0 mi Calm Calm - N/A   Clear
7:15 PM 69.8 °F - 32.0 °F 25% 29.99 in 10.0 mi Calm Calm - N/A   Clear
7:35 PM 64.4 °F - 32.0 °F 30% 29.99 in 10.0 mi South 3.5 mph - N/A   Clear
8:15 PM 59.0 °F - 30.2 °F 34% 30.00 in 10.0 mi Calm Calm - N/A   Clear
8:35 PM 57.2 °F - 30.2 °F 36% 30.01 in 10.0 mi Calm Calm - N/A   Clear
8:55 PM 59.0 °F - 30.2 °F 34% 30.01 in 10.0 mi Calm Calm - N/A   Clear
9:15 PM 59.0 °F - 32.0 °F 36% 30.01 in 10.0 mi SW 4.6 mph - N/A   Clear
9:35 PM 55.4 °F - 32.0 °F 41% 30.01 in 10.0 mi SW 5.8 mph - N/A   Clear
9:55 PM 57.2 °F - 32.0 °F 38% 30.01 in 10.0 mi WSW 6.9 mph - N/A   Clear
10:15 PM 57.2 °F - 32.0 °F 38% 30.02 in 10.0 mi WSW 8.1 mph - N/A   Clear
10:35 PM 55.4 °F - 33.8 °F 44% 30.02 in 10.0 mi WSW 6.9 mph - N/A   Clear
11:15 PM 59.0 °F - 33.8 °F 39% 30.02 in 10.0 mi SW 6.9 mph - N/A   Clear
11:35 PM 59.0 °F - 33.8 °F 39% 30.03 in 10.0 mi WSW 8.1 mph - N/A   Clear
11:55 PM 60.8 °F - 33.8 °F 36% 30.04 in 10.0 mi WNW 8.1 mph - N/A   Clear